Location: Key Biscayne
(25.6930°N, 80.1630°W)
Time: 06:52:52
(UTC-04:00)

CZ-2D R/B - Visible Passes

Search period start: 24 July 2017 00:00
Search period end: 03 August 2017 00:00
Orbit: 525 x 540 km, 97.5° (Epoch: 23 July)

Date Brightness Start Highest point End Pass type
(mag) Time Alt. Az. Time Alt. Az. Time Alt. Az.
24 Jul 6.0 21:53:08 10° SW 21:55:31 16° W 21:57:56 10° WNW visible
25 Jul 5.6 21:42:52 10° SSW 21:45:51 21° W 21:48:51 10° NW visible
26 Jul 5.2 21:32:47 10° SSW 21:36:10 29° W 21:39:34 10° NW visible
27 Jul 4.6 21:22:52 10° S 21:26:30 39° W 21:30:11 10° NNW visible
28 Jul 3.9 21:13:03 10° S 21:16:52 55° W 21:20:41 10° NNW visible
29 Jul 3.4 21:03:20 10° S 21:07:13 78° WSW 21:11:07 10° NNW visible
30 Jul 3.2 20:53:43 10° SSE 20:57:35 75° ENE 21:01:28 10° N visible
31 Jul 3.5 20:44:10 10° SSE 20:47:58 53° ENE 20:51:45 10° N visible
01 Aug 3.9 20:34:44 10° SE 20:38:20 38° ENE 20:41:57 10° N visible
02 Aug 6.2 22:01:27 10° WSW 22:03:04 12° W 22:04:42 10° WNW visible
